Weather in Hopkinsville

United States     36°51′55″N   87°29′19″W
temp.,
°C
wind,
m/s
gust,
m/s
humid.,
%
clouds,
%
prec.,
mm/h
press.,
hPa
HPBL,
m
16 may, sun
sun1601:00+14ne4776100 0.3 1021183
04:00+14sse347279 0.1 102184
07:00+15ssw238999 0.6 102291
10:00+20sw357591 1.0 1023654
13:00+19s238229 1.3 1022177
16:00+23sw457140 1.0 10191099
19:00+20sse3486100 2.3 101983
22:00+17sse3692100 0.3 1019105
17 may, mon
mon1701:00+16sse3894100 0.3 1019164
04:00+15sse3892100 0.0 1018154
07:00+15s41488100 0.0 1019353
10:00+19s41078100 0.0 1020446
13:00+24s685689 0.0 10191676
16:00+25sse586282 0.0 10172054
19:00+20s4979100 0.6 1018223
22:00+17s2282100 0.0 101837
18 may, tue
tue1801:00+17sse2385100 0.0 101855
04:00+17sse2889100 0.3 1018245
07:00+15sse61497100 8.1 1020866
10:00+16sse71695100 8.2 1020661
13:00+18sse61392100 8.8 1020731
16:00+19se5109187 1.5 1019486
19:00+20sse51188100 1.6 1019459
22:00+18se4139495 0.4 1020386
19 may, wed
wed1901:00+18se51493100 0.4 1019425
04:00+16sse41592100 0.0 1020412
07:00+17sse5158917 0.0 1022522
10:00+22sse7117234 0.0 1023855
13:00+25sse7106521 0.0 10221265
16:00+25sse69695 0.3 10211289
19:00+22sse4118017 0.9 1021380
22:00+19se4884100 0.0 1022137
20 may, thu
thu2001:00+18se41184100 0.0 1022195
04:00+16sse398917 0.0 1023188
07:00+17sse313865 0.0 1025399
10:00+23s6107052 0.0 1026702
13:00+26sse676049 0.0 10251263
16:00+26sse46605 0.0 10241375
19:00+23s3577100 0.0 1024110
22:00+19s34875 0.0 102552